Miscellaneous Local Product
Issued by NWS Hastings, NE

Home | Current Version | Previous Version | Text Only | Print | Product List | Glossary On
Versions: 1 2 3 4 5 6 7 8 9 10 11 12 13 14 15 16 17 18 19 20 21 22 23 24 25 26 27 28 29 30 31 32 33 34 35 36 37 38 39 40 41 42 43 44 45 46 47 48 49 50
000
AXUS43 KGID 282202
MISGRI

GID CWA HOURLY WEATHER ROUNDUP
NATIONAL WEATHER SERVICE HASTINGS NE
400 PM CST SUN DEC 28 2014

NOTE: "FAIR" INDICATES FEW OR NO CLOUDS BELOW 12,000 FEET WITH NO
SIGNIFICANT WEATHER AND/OR OBSTRUCTIONS TO VISIBILITY.

...SOUTH CENTRAL NEBRASKA...

CITY           SKY/WX    TMP DP  RH WIND       PRES   REMARKS
GRAND ISLAND   PTSUNNY   26  17  68 N6        30.07R WCI  19
HASTINGS       CLOUDY    29  18  63 NE3       30.04R
KEARNEY        CLOUDY    27  18  69 NE3       30.04R
ORD            CLOUDY    24  16  71 S5        30.05R WCI  18
YORK           MOCLDY    28  19  69 CALM      30.07S
AURORA         CLOUDY    27  20  75 NE3       30.06R
LEXINGTON      CLOUDY    28  19  69 CALM      30.02R
HOLDREGE       CLOUDY    26  16  66 CALM      30.02R
HEBRON         CLOUDY    36  21  54 CALM      30.07S

...NEBRASKA PANHANDLE...

CITY           SKY/WX    TMP DP  RH WIND       PRES   REMARKS
CHADRON        LGT SNOW  25  22  88 CALM      29.93R FOG
ALLIANCE       LGT SNOW  27  24  89 CALM      29.90R FOG
SCOTTSBLUFF    PTSUNNY   27  21  78 SE7       29.89R WCI  19
SIDNEY         MOSUNNY   28  12  51 SW7       29.88S WCI  21

...WESTERN AND NORTH CENTRAL NEBRASKA...

CITY           SKY/WX    TMP DP  RH WIND       PRES   REMARKS
VALENTINE      CLOUDY    25  14  63 E6        30.00R WCI  18
AINSWORTH      CLOUDY    22  15  75 E5        30.00S WCI  16
ONEILL         CLOUDY    20  15  81 E5        30.07S WCI  13
BROKEN BOW     CLOUDY    28  18  66 E5        30.01R WCI  23
IMPERIAL       PTSUNNY   28  16  60 E5        29.94S WCI  23
NORTH PLATTE   CLOUDY    25  17  72 E8        29.97S WCI  16
MCCOOK         CLOUDY    27  17  66 CALM      29.99R

...EASTERN NEBRASKA...

CITY           SKY/WX    TMP DP  RH WIND       PRES   REMARKS
NORFOLK        CLOUDY    24  16  71 NE6       30.09S WCI  17
SO SIOUX CITY  MOCLDY    24  16  71 CALM      30.15R
TEKAMAH        MOCLDY    26  18  71 N7        30.14R WCI  18
COLUMBUS       CLOUDY    25  14  63 NE5       30.11S WCI  19
ALBION         CLOUDY    24  16  69 NE3       30.08R
OMAHA EPPLEY   CLOUDY    33  20  58 SE6       30.13R WCI  28
OFFUTT AFB     PTCLDY    34  21  59 CALM      30.11S
MILLARD        PTCLDY    33  20  56 CALM      30.12R
LINCOLN        PTCLDY    34  19  54 CALM      30.11S
NEBRASKA CITY  PTCLDY    37  17  43 CALM      30.10S
BEATRICE       PTCLDY    38  23  54 SW6       30.08S WCI  33
FALLS CITY     CLEAR     40  22  48 S6        30.11S

...NORTHERN KANSAS...

CITY           SKY/WX    TMP DP  RH WIND       PRES   REMARKS
GOODLAND       CLOUDY    32  24  72 SE13      29.92S WCI  22
HILL CITY      CLOUDY    36  24  62 E7        30.00F WCI  30
NORTON         CLOUDY    30  18  59 NE7       29.99S WCI  23
PHILLIPSBURG   MOSUNNY   36  25  64 E8        30.04S WCI  29
BELOIT         SUNNY     39  21  48 CALM      30.06S
HAYS           CLOUDY    39  19  45 S10       30.01S WCI  32
RUSSELL        PTSUNNY   40  23  50 S10       30.01S WCI  33
CONCORDIA      MOSUNNY   38  21  50 CALM      30.07S
SALINA         SUNNY     41  21  44 S7        30.09R
TOPEKA         MOCLDY    40  20  44 S7        30.13S



USA.gov is the U.S. government's official web portal to all federal, state and local government web resources and services.